This is the latest recevied weather packets stored in our database for station/object OH2EGI-2. If no packets are shown the sender has not sent any weather packets the latest 1 day(s).
| Time | Temp. | Humidity | Pressure | Rain* | Wind** | Luminosity | Snow |
|---|---|---|---|---|---|---|---|
| 1777975296 | 17.22° C | 42% | 994.1 hPa | 0 mm | 0.89 m/s, 292° | - | - |
| 1777974996 | 16.11° C | 45% | 994.1 hPa | 0 mm | 0 m/s | - | - |
| 1777974696 | 15.56° C | 47% | 993.9 hPa | 0 mm | 0 m/s | - | - |
| 1777974396 | 14.44° C | 50% | 994 hPa | 0 mm | 0 m/s | - | - |
| 1777974096 | 13.33° C | 52% | 994 hPa | 0 mm | 0 m/s | - | - |
| 1777973796 | 13.33° C | 52% | 994 hPa | 0 mm | 0 m/s | - | - |
| 1777973496 | 13.33° C | 52% | 993.9 hPa | 0 mm | 0 m/s | - | - |
| 1777973196 | 13.89° C | 52% | 993.8 hPa | 0 mm | 1.79 m/s, 337° | - | - |
| 1777972896 | 13.89° C | 54% | 993.6 hPa | 0 mm | 0 m/s | - | - |
| 1777972596 | 13.89° C | 52% | 993.6 hPa | 0 mm | 0 m/s | - | - |
| 1777972296 | 13.33° C | 51% | 993.4 hPa | 0 mm | 0 m/s | - | - |
| 1777971996 | 13.33° C | 51% | 993.3 hPa | 0 mm | 0 m/s | - | - |
| 1777971696 | 13.33° C | 50% | 993.3 hPa | 0 mm | 0 m/s | - | - |
| 1777971396 | 13.89° C | 50% | 993.3 hPa | 0 mm | 0 m/s | - | - |
| 1777971096 | 13.89° C | 49% | 993.3 hPa | 0 mm | 1.34 m/s, 315° | - | - |
| 1777970796 | 14.44° C | 48% | 993.2 hPa | 0 mm | 0 m/s | - | - |
| 1777970496 | 15.56° C | 49% | 993.2 hPa | 0 mm | 0 m/s | - | - |
| 1777970196 | 16.11° C | 49% | 993.2 hPa | 0 mm | 0 m/s | - | - |
| 1777969896 | 17.22° C | 49% | 993.1 hPa | 0 mm | 0 m/s | - | - |
| 1777969596 | 17.22° C | 49% | 993 hPa | 0 mm | 0 m/s | - | - |
| 1777969296 | 16.67° C | 51% | 993 hPa | 0 mm | 0 m/s | - | - |
| 1777968996 | 16.67° C | 49% | 993 hPa | 0 mm | 0 m/s | - | - |
| 1777968697 | 17.22° C | 49% | 993 hPa | 0 mm | 1.34 m/s, 337° | - | - |
| 1777968396 | 17.78° C | 49% | 993.1 hPa | 0 mm | 0 m/s | - | - |
| 1777968097 | 17.78° C | 50% | 993.1 hPa | 0 mm | 0 m/s | - | - |
* Rain latest hour (hover to see other rain measurements)
** Current wind speed in m/s (hover to see current wind gust speed)